Tracking 30995 objects as of 6-Jul-2025
HD Live streaming from Space Station
objects crossing your sky now

IRIDIUM 33 DEB

Track IRIDIUM 33 DEB now!
10-day predictions


NORAD ID: 36011
Int'l Code: 1997-051US
Perigee: 748.5 km
Apogee: 778.4 km
Inclination: 86.3 °
Period: 100.0 minutes
Semi major axis: 7134 km
RCS: 0.0036 m2 (small)
Launch date: September 14, 1997
Source: United States (US)
Launch site: TYURATAM MISSILE AND SPACE COMPLEX (TTMTR)

Note: This is SATELLITE DEBRIS
Your satellite tracking list
Your tracking list is empty




NASA's NSSDC Master Catalog

Two Line Element Set (TLE):
1 36011U 97051US  25183.54648442  .00001107  00000-0  33978-3 0  9991
2 36011  86.3409 105.4953 0020985  44.3572  79.7371 14.40670334621903
Source of the keplerian elements: AFSPC